Change the Weather History Date:

Monday, February 3, 2014

  Actual Average Record
Temperature  
Mean Temperature 26 °F 34 °F  
Max Temperature 41 °F 45 °F 76 °F (1962)
Min Temperature 11 °F 23 °F -9 °F (2011)
Degree Days  
Heating Degree Days 39 31  
Month to date heating degree days 113 93  
Since 1 July heating degree days 3142 2906  
Cooling Degree Days 0 0  
Month to date cooling degree days 0 0  
Year to date cooling degree days 0 0  
Moisture  
Dew Point 12 °F    
Average Humidity 63    
Maximum Humidity 92    
Minimum Humidity 33    
Precipitation  
Precipitation 0.00 in 0.08 in 0.95 in (2012)
Month to date precipitation 0.13 0.23  
Year to date precipitation 1.42 2.70  
Snow  
Snow 0.00 in - - ()
Month to date snowfall T  
Since 1 July snowfall 23.0  
Snow Depth 0.00 in    
Sea Level Pressure  
Sea Level Pressure 30.28 in    
Wind  
Wind Speed 5 mph (East)    
Max Wind Speed 13 mph    
Max Gust Speed 15 mph    
Visibility 10 miles    
Events      
T = Trace of Precipitation, MM = Missing Value Source: NWS Daily Summary

Daily Weather History Graph

Daily Weather History Graph

Search for Another Location

Airport or City:

Trip Planner

Search our weather history database for the weather conditions in past years. The results will help you decide how hot, cold, wet, or windy it might be!

Date:

Astronomy

Feb. 03, 2014 Rise Set
Actual Time 7:14 AM CST 5:40 PM CST
Civil Twilight 6:47 AM CST 6:07 PM CST
Nautical Twilight 6:16 AM CST 6:38 PM CST
Astronomical Twilight 5:45 AM CST 7:09 PM CST
Moon 9:24 AM CST (2/3) 10:23 PM CST (2/3)
Length of Visible Light 11h 20m
Length of Day
10h 25m
Waxing Crescent, 20% of the Moon is Illuminated
Feb 3
Waxing Crescent
Feb 6
First Quarter
Feb 14
Full
Feb 22
Last Quarter
Mar 1
New

Hourly Weather History & Observations

Time (CST) Temp. Windchill Dew Point Humidity Pressure Visibility Wind Dir Wind Speed Gust Speed Precip Events Conditions
12:32 AM 15.1 °F 5.2 °F 10.9 °F 84% 30.25 in 10.0 mi North 6.9 mph - N/A   Scattered Clouds
12:52 AM 14.0 °F 3.9 °F 10.9 °F 88% 30.32 in 10.0 mi North 6.9 mph - N/A   Clear
1:52 AM 12.9 °F 3.8 °F 10.0 °F 88% 30.31 in 10.0 mi North 5.8 mph - N/A   Clear
2:52 AM 10.9 °F 4.7 °F 8.1 °F 88% 30.34 in 10.0 mi North 3.5 mph - N/A   Clear
3:52 AM 12.0 °F 2.7 °F 8.1 °F 84% 30.32 in 10.0 mi NE 5.8 mph - N/A   Clear
4:52 AM 12.9 °F 3.8 °F 9.0 °F 84% 30.31 in 10.0 mi ENE 5.8 mph - N/A   Clear
5:52 AM 12.0 °F - 8.1 °F 84% 30.32 in 10.0 mi Calm Calm - N/A   Clear
6:52 AM 12.0 °F 5.9 °F 6.1 °F 77% 30.35 in 10.0 mi ENE 3.5 mph - N/A   Clear
7:52 AM 12.9 °F - 8.1 °F 81% 30.36 in 10.0 mi Calm Calm - N/A   Clear
8:52 AM 17.1 °F 8.7 °F 10.0 °F 74% 30.38 in 10.0 mi ESE 5.8 mph - N/A   Clear
9:52 AM 21.9 °F 11.0 °F 9.0 °F 58% 30.33 in 10.0 mi East 10.4 mph - N/A   Clear
10:52 AM 28.0 °F 24.2 °F 9.0 °F 45% 30.35 in 10.0 mi East 3.5 mph - N/A   Clear
11:52 AM 32.0 °F 28.7 °F 10.0 °F 40% 30.32 in 10.0 mi ENE 3.5 mph - N/A   Clear
12:52 PM 35.1 °F 30.1 °F 10.9 °F 37% 30.28 in 10.0 mi ESE 5.8 mph - N/A   Clear
1:52 PM 37.9 °F 35.5 °F 12.0 °F 35% 30.26 in 10.0 mi East 3.5 mph - N/A   Unknown
2:52 PM 37.9 °F 35.5 °F 15.1 °F 39% 30.24 in - SSW 3.5 mph - N/A   Clear
3:52 PM 39.9 °F 35.8 °F 12.0 °F 32% 30.25 in 10.0 mi Variable 5.8 mph - N/A   Clear
4:52 PM 37.0 °F 31.6 °F 17.1 °F 44% 30.24 in 10.0 mi SSW 6.9 mph - N/A   Clear
5:52 PM 33.1 °F 28.7 °F 15.1 °F 48% 30.24 in 10.0 mi SE 4.6 mph - N/A   Clear
6:52 PM 30.0 °F 26.5 °F 16.0 °F 56% 30.24 in 10.0 mi SE 3.5 mph - N/A   Clear
7:52 PM 30.9 °F 27.5 °F 16.0 °F 54% 30.24 in 10.0 mi SE 3.5 mph - N/A   Clear
8:52 PM 30.9 °F 23.5 °F 16.0 °F 54% 30.23 in 10.0 mi SE 8.1 mph - N/A   Clear
9:52 PM 30.9 °F 22.8 °F 19.0 °F 61% 30.22 in 10.0 mi ESE 9.2 mph - N/A   Clear
10:52 PM 30.9 °F 23.5 °F 17.1 °F 57% 30.20 in 10.0 mi SE 8.1 mph - N/A   Clear
11:52 PM 30.9 °F 22.2 °F 14.0 °F 50% 30.19 in 10.0 mi ESE 10.4 mph - N/A   Mostly Cloudy